"Period start","avg(HW err(1)/warn(2) (#))","avg(Visibility (m))","avg(Weather code (#))","avg(Precip intensity (mm/h))","min(HW err(1)/warn(2) (#))","max(HW err(1)/warn(2) (#))","std(HW err(1)/warn(2) (#))","med(HW err(1)/warn(2) (#))","min(Visibility (m))","max(Visibility (m))","std(Visibility (m))","med(Visibility (m))","min(Weather code (#))","max(Weather code (#))","std(Weather code (#))","med(Weather code (#))","min(Precip intensity (mm/h))","max(Precip intensity (mm/h))","std(Precip intensity (mm/h))","med(Precip intensity (mm/h))"
2014-05-04 00:00:00,2,33277,0,0.00,2,2,0,2,19234,50000,7937,33750,0,0,0,0,0.00,0.00,0.00,0.00
2014-05-04 00:10:00,2,36351,0,0.00,2,2,0,2,17578,48026,9765,38658,0,0,0,0,0.00,0.00,0.00,0.00
2014-05-04 00:20:00,2,28595,0,0.00,2,2,0,2,17131,39070,6531,28396,0,0,0,0,0.00,0.00,0.00,0.00
2014-05-04 00:30:00,2,33000,0,0.00,2,2,0,2,18142,50000,12311,31457,0,0,0,0,0.00,0.00,0.00,0.00
2014-05-04 00:40:00,2,31786,0,0.00,2,2,0,2,20525,42258,6497,32726,0,0,0,0,0.00,0.00,0.00,0.00
2014-05-04 00:50:00,2,42427,0,0.00,2,2,0,2,34146,50000,6055,43270,0,0,0,0,0.00,0.00,0.00,0.00
2014-05-04 01:00:00,2,26183,0,0.00,2,2,0,2,18521,37370,5832,25063,0,0,0,0,0.00,0.00,0.00,0.00
2014-05-04 01:10:00,2,36355,0,0.00,2,2,0,2,25544,48597,7216,37250,0,0,0,0,0.00,0.00,0.00,0.00
2014-05-04 01:20:00,2,39343,0,0.00,2,2,0,2,26645,50000,7682,38934,0,0,0,0,0.00,0.00,0.00,0.00
2014-05-04 01:30:00,2,32352,0,0.00,2,2,0,2,17378,45862,7766,33842,0,0,0,0,0.00,0.00,0.00,0.00
2014-05-04 01:40:00,2,24998,0,0.00,2,2,0,2,14774,41510,9296,22888,0,0,0,0,0.00,0.00,0.00,0.00
2014-05-04 01:50:00,2,22035,0,0.00,2,2,0,2,17491,27356,3167,21381,0,0,0,0,0.00,0.00,0.00,0.00
2014-05-04 02:00:00,2,35480,0,0.00,2,2,0,2,22222,45971,8004,36141,0,0,0,0,0.00,0.00,0.00,0.00
2014-05-04 02:10:00,2,44473,0,0.00,2,2,0,2,27639,50000,7416,48444,0,0,0,0,0.00,0.00,0.00,0.00
2014-05-04 02:20:00,2,43502,0,0.00,2,2,0,2,34546,50000,5404,45074,0,0,0,0,0.00,0.00,0.00,0.00
2014-05-04 02:30:00,2,38450,0,0.00,2,2,0,2,23576,48351,6574,38985,0,0,0,0,0.00,0.00,0.00,0.00
2014-05-04 02:40:00,2,36647,0,0.00,2,2,0,2,27056,48978,7779,35552,0,0,0,0,0.00,0.00,0.00,0.00
2014-05-04 02:50:00,2,26451,0,0.00,2,2,0,2,17527,34511,4688,26559,0,0,0,0,0.00,0.00,0.00,0.00
2014-05-04 03:00:00,2,25141,0,0.00,2,2,0,2,15471,36400,7169,27348,0,0,0,0,0.00,0.00,0.00,0.00
2014-05-04 03:10:00,2,21956,0,0.00,2,2,0,2,12035,38742,7659,19563,0,0,0,0,0.00,0.00,0.00,0.00
2014-05-04 03:20:00,2,40714,0,0.00,2,2,0,2,22314,50000,9205,44335,0,0,0,0,0.00,0.00,0.00,0.00
2014-05-04 03:30:00,2,35470,0,0.00,2,2,0,2,19984,50000,9668,35635,0,0,0,0,0.00,0.00,0.00,0.00
2014-05-04 03:40:00,2,38100,0,0.00,2,2,0,2,27005,50000,7119,39564,0,0,0,0,0.00,0.00,0.00,0.00
2014-05-04 03:50:00,2,34341,0,0.00,2,2,0,2,23396,43608,8038,33926,0,0,0,0,0.00,0.00,0.00,0.00
2014-05-04 04:00:00,2,37518,0,0.00,2,2,0,2,25863,48424,8321,36638,0,0,0,0,0.00,0.00,0.00,0.00
2014-05-04 04:10:00,2,41963,0,0.00,2,2,0,2,31769,50000,5821,43034,0,0,0,0,0.00,0.00,0.00,0.00
2014-05-04 04:20:00,2,36576,0,0.00,2,2,0,2,26148,48652,7566,37682,0,0,0,0,0.00,0.00,0.00,0.00
2014-05-04 04:30:00,2,35042,0,0.00,2,2,0,2,28819,44436,5232,32458,0,0,0,0,0.00,0.00,0.00,0.00
2014-05-04 04:40:00,2,38946,0,0.00,2,2,0,2,27290,49255,6638,38602,0,0,0,0,0.00,0.00,0.00,0.00
2014-05-04 04:50:00,2,38508,0,0.00,2,2,0,2,22736,50000,7721,40130,0,0,0,0,0.00,0.00,0.00,0.00
2014-05-04 05:00:00,2,37798,0,0.00,2,2,0,2,24671,50000,8312,40412,0,0,0,0,0.00,0.00,0.00,0.00
2014-05-04 05:10:00,2,30681,0,0.00,2,2,0,2,22147,50000,8551,27732,0,0,0,0,0.00,0.00,0.00,0.00
2014-05-04 05:20:00,2,36461,0,0.00,2,2,0,2,21980,50000,9552,35194,0,0,0,0,0.00,0.00,0.00,0.00
2014-05-04 05:30:00,2,37622,0,0.00,2,2,0,2,21000,50000,10178,38334,0,0,0,0,0.00,0.00,0.00,0.00
2014-05-04 05:40:00,2,40427,0,0.00,2,2,0,2,27026,50000,7553,41828,0,0,0,0,0.00,0.00,0.00,0.00
2014-05-04 05:50:00,2,37360,0,0.00,2,2,0,2,29735,45535,4208,36537,0,0,0,0,0.00,0.00,0.00,0.00
2014-05-04 06:00:00,2,42469,0,0.00,2,2,0,2,37512,50000,3734,41844,0,0,0,0,0.00,0.00,0.00,0.00
2014-05-04 06:10:00,2,38078,0,0.00,2,2,0,2,31584,44937,4119,39479,0,0,0,0,0.00,0.00,0.00,0.00
2014-05-04 06:20:00,2,39238,0,0.00,2,2,0,2,20901,50000,9374,38960,0,0,0,0,0.00,0.00,0.00,0.00
2014-05-04 06:30:00,2,34072,0,0.00,2,2,0,2,23748,48187,7438,31170,0,0,0,0,0.00,0.00,0.00,0.00
2014-05-04 06:40:00,2,37443,0,0.00,2,2,0,2,28073,48710,5866,37072,0,0,0,0,0.00,0.00,0.00,0.00
2014-05-04 06:50:00,2,36285,0,0.00,2,2,0,2,16583,47958,8883,39020,0,0,0,0,0.00,0.00,0.00,0.00
2014-05-04 07:00:00,2,34882,0,0.00,2,2,0,2,28522,47151,5400,34375,0,0,0,0,0.00,0.00,0.00,0.00
2014-05-04 07:10:00,2,41950,0,0.00,2,2,0,2,26565,50000,9338,48326,0,0,0,0,0.00,0.00,0.00,0.00
2014-05-04 07:20:00,2,36898,0,0.00,2,2,0,2,26390,50000,7696,34994,0,0,0,0,0.00,0.00,0.00,0.00
2014-05-04 07:30:00,2,46442,0,0.00,2,2,0,2,37639,50000,4005,48078,0,0,0,0,0.00,0.00,0.00,0.00
2014-05-04 07:40:00,2,40177,0,0.00,2,2,0,2,24778,50000,6466,40744,0,0,0,0,0.00,0.00,0.00,0.00
2014-05-04 07:50:00,2,42535,0,0.00,2,2,0,2,32520,50000,5574,43060,0,0,0,0,0.00,0.00,0.00,0.00
2014-05-04 08:00:00,2,29798,0,0.00,2,2,0,2,22047,39689,5613,28890,0,0,0,0,0.00,0.00,0.00,0.00
2014-05-04 08:10:00,2,14136,16,0.01,2,2,0,2,8901,36343,7621,11903,0,41,20,0,0.00,0.05,0.02,0.00
2014-05-04 08:20:00,2,20018,22,0.00,2,2,0,2,12585,30445,6078,20468,0,77,33,0,0.00,0.00,0.00,0.00
2014-05-04 08:30:00,2,25437,0,0.00,2,2,0,2,10683,50000,11800,23190,0,0,0,0,0.00,0.00,0.00,0.00
2014-05-04 08:40:00,2,37775,0,0.00,2,2,0,2,31554,50000,6483,34494,0,0,0,0,0.00,0.00,0.00,0.00
2014-05-04 08:50:00,2,32140,0,0.00,2,2,0,2,17628,49909,9894,28988,0,0,0,0,0.00,0.00,0.00,0.00
2014-05-04 09:00:00,2,16917,0,0.00,2,2,0,2,9840,28442,6303,14656,0,0,0,0,0.00,0.00,0.00,0.00
2014-05-04 09:10:00,2,19155,7,0.00,2,2,0,2,12108,26611,3759,19956,0,71,21,0,0.00,0.00,0.00,0.00
2014-05-04 09:20:00,2,31791,15,0.00,2,2,0,2,18683,48618,9148,31438,0,77,30,0,0.00,0.00,0.00,0.00
2014-05-04 09:30:00,2,40463,0,0.00,2,2,0,2,36666,44604,2743,40045,0,0,0,0,0.00,0.00,0.00,0.00
2014-05-04 09:40:00,2,34462,0,0.00,2,2,0,2,20690,50000,8441,33350,0,0,0,0,0.00,0.00,0.00,0.00
2014-05-04 09:50:00,2,17211,0,0.00,2,2,0,2,8520,33089,7649,15436,0,0,0,0,0.00,0.00,0.00,0.00
2014-05-04 10:00:00,2,10547,22,0.01,2,2,0,2,6393,14603,2824,10896,0,77,33,0,0.00,0.05,0.02,0.00
2014-05-04 10:10:00,2,11405,13,0.00,2,2,0,2,8657,14226,1602,11284,0,77,27,0,0.00,0.00,0.00,0.00
2014-05-04 10:20:00,2,16786,30,0.01,2,2,0,2,9360,31552,6226,14914,0,77,36,0,0.00,0.05,0.02,0.00
2014-05-04 10:30:00,2,43544,0,0.00,2,2,0,2,34092,50000,5455,45272,0,0,0,0,0.00,0.00,0.00,0.00
2014-05-04 10:40:00,2,47902,0,0.00,2,2,0,2,38118,50000,3380,49184,0,0,0,0,0.00,0.00,0.00,0.00
2014-05-04 10:50:00,2,47052,0,0.00,2,2,0,2,41984,50000,3326,48906,0,0,0,0,0.00,0.00,0.00,0.00
2014-05-04 11:00:00,2,44437,0,0.00,2,2,0,2,34445,50000,5270,45836,0,0,0,0,0.00,0.00,0.00,0.00
2014-05-04 11:10:00,2,46429,0,0.00,2,2,0,2,38909,50000,3702,47896,0,0,0,0,0.00,0.00,0.00,0.00
2014-05-04 11:20:00,2,47550,0,0.00,2,2,0,2,42967,50000,2826,49344,0,0,0,0,0.00,0.00,0.00,0.00
2014-05-04 11:30:00,2,47515,0,0.00,2,2,0,2,42670,50000,2453,48142,0,0,0,0,0.00,0.00,0.00,0.00
2014-05-04 11:40:00,2,41044,7,0.00,2,2,0,2,7147,50000,13724,48504,0,71,21,0,0.00,0.00,0.00,0.00
2014-05-04 11:50:00,2,3747,71,0.65,2,2,0,2,2386,9834,2074,3068,71,71,0,71,0.05,1.45,0.35,0.65
2014-05-04 12:00:00,2,2547,71,2.42,2,2,0,2,1683,3328,498,2676,71,71,0,71,1.50,3.40,0.59,2.27
2014-05-04 12:10:00,2,2469,75,1.79,2,2,0,2,2008,2893,314,2426,71,77,3,77,0.45,3.65,0.96,1.85
2014-05-04 12:20:00,2,3312,75,1.53,2,2,0,2,2701,4009,410,3366,71,77,3,77,0.40,2.60,0.71,1.30
2014-05-04 12:30:00,2,3450,76,0.92,2,2,0,2,2613,4272,404,3454,74,77,1,77,0.45,2.00,0.51,0.65
2014-05-04 12:40:00,2,9188,68,0.17,2,2,0,2,5464,16747,3431,8287,54,77,11,77,0.00,0.55,0.16,0.15
2014-05-04 12:50:00,2,7091,72,0.41,2,2,0,2,4846,10766,1780,6264,71,77,2,71,0.05,0.90,0.27,0.38
2014-05-04 13:00:00,2,9680,71,0.14,2,2,0,2,7238,13027,1863,9087,71,71,0,71,0.05,0.40,0.12,0.08
2014-05-04 13:10:00,2,8944,71,0.23,2,2,0,2,6222,11667,1897,8275,71,71,0,71,0.05,0.65,0.21,0.15
2014-05-04 13:20:00,2,13263,71,0.15,2,2,0,2,4878,24167,5502,13212,71,71,0,71,0.00,0.85,0.25,0.03
2014-05-04 13:30:00,2,25186,77,0.00,2,2,0,2,19464,32477,4002,24400,71,78,2,78,0.00,0.00,0.00,0.00
2014-05-04 13:40:00,2,49013,8,0.00,2,2,0,2,40752,50000,2760,50000,0,78,23,0,0.00,0.00,0.00,0.00
2014-05-04 13:50:00,2,49893,0,0.00,2,2,0,2,49056,50000,282,50000,0,0,0,0,0.00,0.00,0.00,0.00
2014-05-04 14:00:00,2,50000,0,0.00,2,2,0,2,50000,50000,0,50000,0,0,0,0,0.00,0.00,0.00,0.00
2014-05-04 14:10:00,2,44826,0,0.00,2,2,0,2,16363,50000,10427,50000,0,0,0,0,0.00,0.00,0.00,0.00
2014-05-04 14:20:00,2,38428,0,0.00,2,2,0,2,15769,50000,13213,45434,0,0,0,0,0.00,0.00,0.00,0.00
2014-05-04 14:30:00,2,49821,0,0.00,2,2,0,2,48275,50000,516,50000,0,0,0,0,0.00,0.00,0.00,0.00
2014-05-04 14:40:00,2,45995,0,0.00,2,2,0,2,35246,50000,4640,47886,0,0,0,0,0.00,0.00,0.00,0.00
2014-05-04 14:50:00,2,49053,0,0.00,2,2,0,2,45341,50000,1497,49663,0,0,0,0,0.00,0.00,0.00,0.00
2014-05-04 15:00:00,2,48337,0,0.00,2,2,0,2,43476,50000,2122,49399,0,0,0,0,0.00,0.00,0.00,0.00
2014-05-04 15:10:00,2,50000,0,0.00,2,2,0,2,50000,50000,0,50000,0,0,0,0,0.00,0.00,0.00,0.00
2014-05-04 15:20:00,2,45462,0,0.00,2,2,0,2,35348,50000,5474,48092,0,0,0,0,0.00,0.00,0.00,0.00
2014-05-04 15:30:00,2,48350,22,0.00,2,2,0,2,43968,50000,1825,48522,0,78,34,0,0.00,0.00,0.00,0.00
2014-05-04 15:40:00,2,47451,0,0.00,2,2,0,2,42743,50000,3055,49695,0,0,0,0,0.00,0.00,0.00,0.00
2014-05-04 15:50:00,2,43627,0,0.00,2,2,0,2,35514,50000,4278,43048,0,0,0,0,0.00,0.00,0.00,0.00
2014-05-04 16:00:00,2,33512,52,0.02,2,2,0,2,17292,43293,7370,34766,0,77,34,71,0.00,0.10,0.03,0.00
2014-05-04 16:10:00,2,37530,60,0.00,2,2,0,2,29322,45681,4843,37512,41,77,15,71,0.00,0.00,0.00,0.00
2014-05-04 16:20:00,2,34699,77,0.01,2,2,0,2,28659,39748,4390,35194,77,77,0,77,0.00,0.05,0.02,0.00
2014-05-04 16:30:00,2,29130,30,0.00,2,2,0,2,24049,34116,3165,29078,0,77,36,0,0.00,0.00,0.00,0.00
2014-05-04 16:40:00,2,26092,23,0.00,2,2,0,2,18805,32112,3534,27068,0,77,35,0,0.00,0.00,0.00,0.00
2014-05-04 16:50:00,2,24345,0,0.00,2,2,0,2,22391,26138,1326,24036,0,0,0,0,0.00,0.00,0.00,0.00
2014-05-04 17:00:00,2,26517,0,0.00,2,2,0,2,23572,28143,1504,26736,0,0,0,0,0.00,0.00,0.00,0.00
2014-05-04 17:10:00,2,34338,0,0.00,2,2,0,2,26750,39327,3966,34506,0,0,0,0,0.00,0.00,0.00,0.00
2014-05-04 17:20:00,2,32550,0,0.00,2,2,0,2,27625,35261,2177,32316,0,0,0,0,0.00,0.00,0.00,0.00
2014-05-04 17:30:00,2,33928,0,0.00,2,2,0,2,28120,40978,4045,33335,0,0,0,0,0.00,0.00,0.00,0.00
2014-05-04 17:40:00,2,33883,0,0.00,2,2,0,2,27546,42498,4471,33684,0,0,0,0,0.00,0.00,0.00,0.00
2014-05-04 17:50:00,2,32308,0,0.00,2,2,0,2,26768,36549,2816,32436,0,0,0,0,0.00,0.00,0.00,0.00
2014-05-04 18:00:00,2,27910,0,0.00,2,2,0,2,24510,31440,2297,28389,0,0,0,0,0.00,0.00,0.00,0.00
2014-05-04 18:10:00,2,27297,0,0.00,2,2,0,2,24116,33221,2551,27394,0,0,0,0,0.00,0.00,0.00,0.00
2014-05-04 18:20:00,2,24620,0,0.00,2,2,0,2,20707,27719,2231,25253,0,0,0,0,0.00,0.00,0.00,0.00
2014-05-04 18:30:00,2,22208,0,0.00,2,2,0,2,20119,25028,1223,22095,0,0,0,0,0.00,0.00,0.00,0.00
2014-05-04 18:40:00,2,21338,0,0.00,2,2,0,2,19402,26779,2133,20712,0,0,0,0,0.00,0.00,0.00,0.00
2014-05-04 18:50:00,2,23138,0,0.00,2,2,0,2,17898,27971,2845,23114,0,0,0,0,0.00,0.00,0.00,0.00
2014-05-04 19:00:00,2,22698,0,0.00,2,2,0,2,18387,28074,2668,22772,0,0,0,0,0.00,0.00,0.00,0.00
2014-05-04 19:10:00,2,19966,0,0.00,2,2,0,2,15890,24956,3005,19072,0,0,0,0,0.00,0.00,0.00,0.00
2014-05-04 19:20:00,2,17460,0,0.00,2,2,0,2,15595,20475,1329,17317,0,0,0,0,0.00,0.00,0.00,0.00
2014-05-04 19:30:00,2,17874,0,0.00,2,2,0,2,15740,21536,1689,17598,0,0,0,0,0.00,0.00,0.00,0.00
2014-05-04 19:40:00,2,16891,0,0.00,2,2,0,2,15700,20647,1400,16391,0,0,0,0,0.00,0.00,0.00,0.00
2014-05-04 19:50:00,2,15597,0,0.00,2,2,0,2,13577,18388,1274,15825,0,0,0,0,0.00,0.00,0.00,0.00
2014-05-04 20:00:00,2,18121,0,0.00,2,2,0,2,14149,23614,2846,17932,0,0,0,0,0.00,0.00,0.00,0.00
2014-05-04 20:10:00,2,16141,0,0.00,2,2,0,2,13443,20624,2141,15420,0,0,0,0,0.00,0.00,0.00,0.00
2014-05-04 20:20:00,2,17451,0,0.00,2,2,0,2,15153,19306,1195,17663,0,0,0,0,0.00,0.00,0.00,0.00
2014-05-04 20:30:00,2,19030,0,0.00,2,2,0,2,14995,23002,2095,19233,0,0,0,0,0.00,0.00,0.00,0.00
2014-05-04 20:40:00,2,18584,0,0.00,2,2,0,2,13526,26499,4274,17074,0,0,0,0,0.00,0.00,0.00,0.00
2014-05-04 20:50:00,2,16217,0,0.00,2,2,0,2,12730,20646,2550,15676,0,0,0,0,0.00,0.00,0.00,0.00
2014-05-04 21:00:00,2,15249,0,0.00,2,2,0,2,11507,21251,2356,14922,0,0,0,0,0.00,0.00,0.00,0.00
2014-05-04 21:10:00,2,15562,0,0.00,2,2,0,2,12107,18989,1998,15220,0,0,0,0,0.00,0.00,0.00,0.00
2014-05-04 21:20:00,2,16657,0,0.00,2,2,0,2,13763,20929,2295,15946,0,0,0,0,0.00,0.00,0.00,0.00
2014-05-04 21:30:00,2,14748,0,0.00,2,2,0,2,12036,20796,2319,14636,0,0,0,0,0.00,0.00,0.00,0.00
2014-05-04 21:40:00,2,11712,0,0.00,2,2,0,2,7350,14052,2179,12676,0,0,0,0,0.00,0.00,0.00,0.00
2014-05-04 21:50:00,2,8803,5,0.00,2,2,0,2,6939,12923,1571,8721,0,10,5,5,0.00,0.00,0.00,0.00
2014-05-04 22:00:00,2,12477,10,0.00,2,2,0,2,9045,15354,1733,12249,10,10,0,10,0.00,0.00,0.00,0.00
2014-05-04 22:10:00,2,14324,0,0.00,2,2,0,2,11706,19043,2292,13509,0,0,0,0,0.00,0.00,0.00,0.00
2014-05-04 22:20:00,2,12774,0,0.00,2,2,0,2,9471,16163,1924,12646,0,0,0,0,0.00,0.00,0.00,0.00
2014-05-04 22:30:00,2,12742,0,0.00,2,2,0,2,9410,16130,1745,13188,0,0,0,0,0.00,0.00,0.00,0.00
2014-05-04 22:40:00,2,11593,0,0.00,2,2,0,2,7721,15370,2433,12372,0,0,0,0,0.00,0.00,0.00,0.00
2014-05-04 22:50:00,2,14360,0,0.00,2,2,0,2,11661,17835,1999,13544,0,0,0,0,0.00,0.00,0.00,0.00
2014-05-04 23:00:00,2,13725,0,0.00,2,2,0,2,10149,17292,2092,13366,0,0,0,0,0.00,0.00,0.00,0.00
2014-05-04 23:10:00,2,11620,0,0.00,2,2,0,2,9740,13437,1160,11409,0,0,0,0,0.00,0.00,0.00,0.00
2014-05-04 23:20:00,2,11182,0,0.00,2,2,0,2,9682,12537,867,11198,0,0,0,0,0.00,0.00,0.00,0.00
2014-05-04 23:30:00,2,8798,3,0.00,2,2,0,2,4417,12143,2831,10242,0,10,5,0,0.00,0.00,0.00,0.00
2014-05-04 23:40:00,2,7980,10,0.00,2,2,0,2,4152,9956,1714,8218,10,10,0,10,0.00,0.00,0.00,0.00
2014-05-04 23:50:00,2,9004,10,0.00,2,2,0,2,6531,11485,1385,8949,10,10,0,10,0.00,0.00,0.00,0.00
